This demonstration page uses our WeatherBlox Daily Observations layout. Learn more.

Left ArrowRight Arrow

Hourly Observations for April 1, 2018

Temp ( °F °C ) Dew Point ( °F °C ) Humidity (%) Winds ( mph kmh ) Pressure ( in mb ) Visibility ( mi km ) Precip ( " mm )
12:53 am 00:53 Clear 56 13.3 44 6.7 65 65 N 3 6 29.95 1014 10 16 0.00 0.00
1:53 am 01:53 Clear 52 11.1 44 6.7 75 75 Calm 29.96 1014 10 16 0.00 0.00
2:53 am 02:53 Clear 51 10.6 44 6.7 77 77 Calm 29.95 1014 10 16 0.00 0.00
3:53 am 03:53 Clear 49 9.4 44 6.7 83 83 NNW 3 6 29.94 1014 10 16 0.00 0.00
4:53 am 04:53 Clear 48 8.9 43 6.1 83 83 Calm 29.93 1014 10 16 0.00 0.00
5:53 am 05:53 Clear 46 7.8 42 5.6 86 86 Calm 29.94 1014 10 16 0.00 0.00
6:19 am 06:19 Clear 45 7 43 6 93 93 Calm 29.97 1015 10 16 0.00 0.00
6:53 am 06:53 Sunny 46 7.8 42 5.6 86 86 Calm 29.95 1014 10 16 0.00 0.00
7:53 am 07:53 Sunny 49 9.4 44 6.7 83 83 Calm 29.94 1014 10 16 0.00 0.00
8:53 am 08:53 Sunny 56 13.3 47 8.3 72 72 ESE 3 6 29.94 1014 10 16 0.00 0.00
9:53 am 09:53 Sunny 67 19.4 42 5.6 41 41 VRB 5 7 29.93 1013 10 16 0.00 0.00
10:53 am 10:53 Sunny 71 21.7 37 2.8 29 29 N 10 17 29.91 1013 10 16 0.00 0.00
11:53 am 11:53 Sunny 73 22.8 37 2.8 27 27 N 6 9 29.89 1012 10 16 0.00 0.00
12:53 pm 12:53 Sunny 76 24.4 38 3.3 25 25 Calm 29.86 1011 10 16 0.00 0.00
1:53 pm 13:53 Sunny 77 25 36 2.2 23 23 W 6 9 29.83 1010 10 16 0.00 0.00
2:53 pm 14:53 Sunny 77 25 37 2.8 24 24 SE 3 6 29.81 1010 10 16 0.00 0.00
3:53 pm 15:53 Sunny 78 25.6 39 3.9 25 25 ESE 6 9 29.79 1009 10 16 0.00 0.00
4:53 pm 16:53 Sunny 79 26.1 42 5.6 27 27 E 7 11 29.77 1008 10 16 0.00 0.00
5:53 pm 17:53 Sunny 78 25.6 44 6.7 30 30 S 9 15 29.75 1008 10 16 0.00 0.00
6:53 pm 18:53 Sunny 77 25 39 3.9 26 26 undefined N/A 29.75 1008 10 16 0.00 0.00
7:53 pm 19:53 Clear 71 21.7 40 4.4 32 32 WSW 5 7 29.76 1008 10 16 0.00 0.00
8:53 pm 20:53 Clear 67 19.4 41 5 39 39 Calm 29.78 1009 10 16 0.00 0.00
9:53 pm 21:53 Clear 62 16.7 43 6.1 50 50 Calm 29.80 1009 10 16 0.00 0.00
10:53 pm 22:53 Clear 65 18.3 41 5 42 42 W 7 11 29.81 1009 10 16 0.00 0.00
11:53 pm 23:53 Clear 63 17.2 41 5 45 45 W 5 7 29.81 1010 10 16 0.00 0.00

Powered by AerisWeather